Tracking 34305 objects as of 7-Jun-2026
HD Live streaming from Space Station
objects crossing your sky now

FLOCK 4H 28

Track FLOCK 4H 28 now!
10-day predictions
FLOCK 4H 28 is classified as:


NORAD ID: 66731
Int'l Code: 2025-276BT
Perigee: 510.6 km
Apogee: 518.2 km
Inclination: 97.4 °
Period: 94.8 minutes
Semi major axis: 6885 km
RCS: Unknown
Launch date: November 28, 2025
Source: United States (US)
Launch site: AIR FORCE WESTERN TEST RANGE (AFWTR)
Your satellite tracking list
Your tracking list is empty




NASA's NSSDC Master Catalog

Two Line Element Set (TLE):
1 66731U 25276BT  26158.23062035  .00006749  00000-0  32058-3 0  9995
2 66731  97.4175 231.8028 0005520  60.1957 299.9826 15.19535810 28904
Source of the keplerian elements: AFSPC